EW0351 Weather Reports


Display with metric or nautical units.
time (UTC)temp
F
wind
direction
speed
MPH
gust
MPH
rain 1hr
in
rain 24hr
in
rain mn
in
humidity
%
barometer
mb
20260906185157 86 34 0.0 0.0 0.00 0.00 0.00 67 1014.4
20260906184655 86 34 0.0 0.0 0.00 0.00 0.00 67 1014.4
20260906184156 86 355 0.0 0.0 0.00 0.00 0.00 67 1014.6
20260906183656 86 244 0.0 0.0 0.00 0.00 0.00 68 1014.7
20260906183152 86 219 0.0 0.0 0.00 0.00 0.00 66 1014.7
20260906181649 85 214 0.0 0.0 0.00 0.00 0.00 67 1014.8
20260906181148 85 215 0.0 1.0 0.00 0.00 0.00 67 1014.9
20260906180144 85 225 0.0 1.0 0.00 0.00 0.00 66 1015.1
20260906175644 86 213 0.0 0.0 0.00 0.00 0.00 66 1015.2
20260906175145 86 209 0.0 0.0 0.00 0.00 0.00 65 1015.2
20260906173637 86 207 0.0 1.0 0.00 0.00 0.00 66 1015.2
20260906173131 85 276 0.0 1.0 0.00 0.00 0.00 67 1015.2
20260906172625 84 219 0.0 1.0 0.00 0.00 0.00 69 1015.3
20260906172119 84 219 0.0 1.0 0.00 0.00 0.00 69 1015.3
20260906171613 84 220 0.0 1.0 0.00 0.00 0.00 70 1015.5
20260906171107 84 250 0.0 0.0 0.00 0.00 0.00 68 1015.6
20260906170601 84 249 0.0 0.0 0.00 0.00 0.00 69 1015.8
20260906170055 84 203 0.0 0.0 0.00 0.00 0.00 68 1015.9
20260906165554 84 219 0.0 0.0 0.00 0.00 0.00 69 1016.0
20260906165054 83 211 0.0 1.0 0.00 0.00 0.00 67 1015.9
20260906164554 83 188 0.0 1.0 0.00 0.00 0.00 68 1016.0
20260906164053 84 200 0.0 0.0 0.00 0.00 0.00 67 1015.9
20260906163550 84 233 0.0 0.0 0.00 0.00 0.00 68 1015.9
20260906163051 83 270 0.0 0.0 0.00 0.00 0.00 68 1015.8
20260906161546 83 274 0.0 0.0 0.00 0.00 0.00 70 1015.9
20260906161044 83 282 0.0 0.0 0.00 0.00 0.00 71 1015.9
20260906155041 82 284 0.0 1.0 0.00 0.00 0.00 72 1016.1
20260906154538 82 284 0.0 1.0 0.00 0.00 0.00 71 1016.1
20260906153538 81 223 0.0 0.0 0.00 0.00 0.00 72 1016.0
20260906153037 81 213 0.0 2.0 0.00 0.00 0.00 73 1016.0
20260906152538 81 234 0.0 2.0 0.00 0.00 0.00 73 1015.9
20260906152037 81 225 0.0 1.0 0.00 0.00 0.00 74 1016.0
20260906151538 81 196 0.0 1.0 0.00 0.00 0.00 74 1016.0
20260906151039 81 264 0.0 0.0 0.00 0.00 0.00 74 1015.6
20260906150537 80 267 0.0 1.0 0.00 0.00 0.00 76 1015.9
20260906145539 80 242 0.0 0.0 0.00 0.00 0.00 77 1015.9
20260906145038 79 219 0.0 0.0 0.00 0.00 0.00 77 1015.8
20260906144537 79 221 0.0 1.0 0.00 0.00 0.00 77 1015.8
20260906144037 79 248 0.0 1.0 0.00 0.00 0.00 77 1015.8
20260906143538 79 173 0.0 1.0 0.00 0.00 0.00 77 1016.0
20260906143038 79 267 0.0 1.0 0.00 0.00 0.00 77 1016.0
20260906142538 80 200 0.0 2.0 0.00 0.00 0.00 76 1016.0
20260906142038 80 250 0.0 2.0 0.00 0.00 0.00 76 1016.1
20260906141532 80 288 0.0 1.0 0.00 0.00 0.00 76 1015.9
20260906141026 80 226 0.0 1.0 0.00 0.00 0.00 75 1015.8
20260906140013 80 211 0.0 1.0 0.00 0.00 0.00 76 1015.4
20260906135504 80 263 0.0 0.0 0.00 0.00 0.00 76 1015.2
20260906134959 80 264 0.0 0.0 0.00 0.00 0.00 76 1015.2
20260906134455 79 264 0.0 0.0 0.00 0.00 0.00 76 1015.3
20260906133441 79 264 0.0 0.0 0.00 0.00 0.00 76 1015.2
20260906132936 79 263 0.0 0.0 0.00 0.00 0.00 76 1015.3
20260906132430 79 263 0.0 0.0 0.00 0.00 0.00 76 1015.3
20260906131922 79 263 0.0 0.0 0.00 0.00 0.00 77 1015.3
20260906131418 78 263 0.0 0.0 0.00 0.00 0.00 77 1015.2
20260906130912 78 263 0.0 0.0 0.00 0.00 0.00 77 1015.2
20260906130406 78 264 0.0 0.0 0.00 0.00 0.00 78 1015.1
20260906125900 78 264 0.0 0.0 0.00 0.00 0.00 78 1015.1
20260906124847 78 263 0.0 0.0 0.00 0.00 0.00 79 1014.9
20260906123835 77 57 0.0 0.0 0.00 0.00 0.00 79 1014.8
20260906123330 77 57 0.0 0.0 0.00 0.00 0.00 80 1014.7
20260906122824 77 57 0.0 0.0 0.00 0.00 0.00 80 1014.6
20260906122318 77 57 0.0 0.0 0.00 0.00 0.00 80 1014.6
20260906121812 77 57 0.0 0.0 0.00 0.00 0.00 80 1014.5
20260906120800 77 57 0.0 0.0 0.00 0.00 0.00 80 1014.4
20260906115242 77 57 0.0 0.0 0.00 0.00 0.00 79 1014.3
20260906114736 77 57 0.0 0.0 0.00 0.00 0.00 79 1014.3
20260906114230 77 57 0.0 0.0 0.00 0.00 0.00 79 1014.2
20260906113724 77 57 0.0 0.0 0.00 0.00 0.00 79 1014.1
20260906113218 77 57 0.0 0.0 0.00 0.00 0.00 79 1014.1
20260906112712 77 57 0.0 0.0 0.00 0.00 0.00 79 1014.0
20260906112206 77 57 0.0 0.0 0.00 0.00 0.00 79 1014.0
20260906111659 77 57 0.0 0.0 0.00 0.00 0.00 79 1014.0
20260906111153 77 57 0.0 0.0 0.00 0.00 0.00 79 1014.0
20260906110648 77 57 0.0 0.0 0.00 0.00 0.00 79 1014.0
20260906110141 77 57 0.0 0.0 0.00 0.00 0.00 78 1014.0
20260906105130 78 57 0.0 0.0 0.00 0.00 0.00 78 1013.9
20260906104624 78 57 0.0 0.0 0.00 0.00 0.00 78 1014.1
20260906104118 78 57 0.0 0.0 0.00 0.00 0.00 77 1014.1
20260906102559 78 57 0.0 0.0 0.00 0.00 0.00 77 1014.0
20260906102054 78 57 0.0 0.0 0.00 0.00 0.00 77 1013.9
20260906101548 78 57 0.0 0.0 0.00 0.00 0.00 76 1013.9
20260906101041 78 57 0.0 0.0 0.00 0.00 0.00 76 1013.9
20260906100536 78 57 0.0 0.0 0.00 0.00 0.00 76 1013.9
20260906095523 79 57 0.0 0.0 0.00 0.00 0.00 76 1013.8
20260906095018 79 57 0.0 0.0 0.00 0.00 0.00 75 1013.8
20260906094512 79 57 0.0 0.0 0.00 0.00 0.00 75 1013.8
20260906094006 79 249 0.0 0.0 0.00 0.00 0.00 75 1013.8
20260906092953 78 248 0.0 0.0 0.00 0.00 0.00 75 1013.8
20260906092448 78 216 0.0 0.0 0.00 0.00 0.00 76 1013.8
20260906091436 78 216 0.0 0.0 0.00 0.00 0.00 76 1013.9
20260906090930 78 216 0.0 0.0 0.00 0.00 0.00 76 1013.9
20260906090424 78 216 0.0 0.0 0.00 0.00 0.00 77 1014.0
20260906085918 78 216 0.0 0.0 0.00 0.00 0.00 77 1014.0
20260906085412 78 216 0.0 0.0 0.00 0.00 0.00 76 1014.0
20260906084906 79 216 0.0 0.0 0.00 0.00 0.00 76 1014.0
20260906084400 79 216 0.0 0.0 0.00 0.00 0.00 76 1014.0
20260906083858 79 30 0.0 0.0 0.00 0.00 0.00 75 1014.0
20260906083343 79 30 0.0 0.0 0.00 0.00 0.00 75 1014.0
20260906082839 79 30 0.0 0.0 0.00 0.00 0.00 75 1013.9
20260906081840 79 30 0.0 0.0 0.00 0.00 0.00 75 1013.9
20260906081337 80 30 0.0 0.0 0.00 0.00 0.00 74 1013.9
20260906075333 80 30 0.0 0.0 0.00 0.00 0.00 72 1013.8
20260906074831 80 30 0.0 0.0 0.00 0.00 0.00 72 1013.9
20260906073828 80 30 0.0 0.0 0.00 0.00 0.00 71 1013.9
20260906072326 81 30 0.0 0.0 0.00 0.00 0.00 70 1013.6
20260906071826 81 30 0.0 0.0 0.00 0.00 0.00 70 1013.6
20260906071324 80 30 0.0 0.0 0.00 0.00 0.00 71 1013.7
20260906070825 80 30 0.0 1.0 0.00 0.00 0.00 71 1013.5
20260906070325 80 30 0.0 1.0 0.00 0.00 0.00 72 1013.7
20260906065824 80 30 0.0 0.0 0.00 0.00 0.00 72 1013.8
20260906065325 80 30 0.0 0.0 0.00 0.00 0.00 73 1013.9
20260906064825 80 30 0.0 0.0 0.00 0.00 0.00 73 1013.9
20260906064325 80 30 0.0 0.0 0.00 0.00 0.00 74 1013.9
20260906063824 80 30 0.0 0.0 0.00 0.00 0.00 74 1013.9
20260906063325 80 30 0.0 0.0 0.00 0.00 0.00 74 1013.9
20260906062824 80 30 0.0 0.0 0.00 0.00 0.00 74 1013.8
20260906062325 80 30 0.0 0.0 0.00 0.00 0.00 74 1013.9
20260906061824 80 30 0.0 0.0 0.00 0.00 0.00 73 1014.0
20260906061326 80 30 0.0 0.0 0.00 0.00 0.00 73 1014.0
20260906060824 81 30 0.0 0.0 0.00 0.00 0.00 72 1014.0
20260906060324 81 30 0.0 0.0 0.00 0.00 0.00 72 1014.0
20260906055825 81 30 0.0 0.0 0.00 0.00 0.00 71 1014.0
20260906055325 81 30 0.0 0.0 0.00 0.00 0.00 71 1014.0
20260906054827 81 30 0.0 0.0 0.00 0.00 0.00 70 1014.1
20260906054321 81 30 0.0 0.0 0.00 0.00 0.00 70 1014.1
20260906053309 82 30 0.0 0.0 0.00 0.00 0.00 69 1014.1
20260906052804 82 30 0.0 0.0 0.00 0.00 0.00 69 1014.1
20260906052256 82 285 0.0 0.0 0.00 0.00 0.00 68 1014.1
20260906051752 82 285 0.0 0.0 0.00 0.00 0.00 68 1014.0
20260906050748 82 286 0.0 0.0 0.00 0.00 0.00 67 1014.0
20260906050244 83 285 0.0 0.0 0.00 0.00 0.00 67 1014.0
20260906045743 83 285 0.0 0.0 0.00 0.00 0.00 66 1014.0
20260906044226 83 235 0.0 0.0 0.00 0.00 0.00 65 1013.9
20260906043214 83 209 0.0 0.0 0.00 0.00 0.00 65 1013.8
20260906042707 83 209 0.0 0.0 0.00 0.00 0.00 65 1013.9
20260906042202 83 209 0.0 0.0 0.00 0.00 0.00 65 1013.9
20260906041656 83 209 0.0 0.0 0.00 0.00 0.00 65 1013.9
20260906041150 83 209 0.0 0.0 0.00 0.00 0.00 65 1013.8
20260906040644 83 209 0.0 0.0 0.00 0.00 0.00 66 1013.8
20260906040137 83 209 0.0 0.0 0.00 0.00 0.00 66 1013.9
20260906035631 83 209 0.0 0.0 0.00 0.00 0.00 66 1013.9
20260906035125 83 209 0.0 0.0 0.00 0.00 0.00 66 1013.8
20260906034620 83 209 0.0 0.0 0.00 0.00 0.00 67 1013.9
20260906034114 83 209 0.0 0.0 0.00 0.00 0.00 67 1013.9
20260906033608 83 209 0.0 0.0 0.00 0.00 0.00 67 1013.9
20260906033101 84 209 0.0 0.0 0.00 0.00 0.00 67 1013.8
20260906032555 84 209 0.0 0.0 0.00 0.00 0.00 66 1013.8
20260906031544 84 209 0.0 0.0 0.00 0.00 0.00 65 1013.7
20260906031037 84 209 0.0 0.0 0.00 0.00 0.00 65 1013.5
20260906030532 85 209 0.0 0.0 0.00 0.00 0.00 65 1013.4
20260906025520 85 209 0.0 0.0 0.00 0.00 0.00 64 1013.2
20260906025014 85 209 0.0 0.0 0.00 0.00 0.00 64 1013.2
20260906024507 85 209 0.0 0.0 0.00 0.00 0.00 64 1013.2
20260906024002 85 209 0.0 0.0 0.00 0.00 0.00 63 1013.1
20260906023456 86 209 0.0 0.0 0.00 0.00 0.00 63 1013.1
20260906022950 86 209 0.0 0.0 0.00 0.00 0.00 63 1012.9
20260906022448 86 209 0.0 0.0 0.00 0.00 0.00 63 1012.8
20260906021948 86 209 0.0 0.0 0.00 0.00 0.00 63 1012.7
20260906021447 86 209 0.0 0.0 0.00 0.00 0.00 63 1012.6
20260906020948 86 209 0.0 0.0 0.00 0.00 0.00 63 1012.5
20260906020444 86 209 0.0 0.0 0.00 0.00 0.00 63 1012.5
20260906015943 86 209 0.0 0.0 0.00 0.00 0.00 62 1012.4
20260906014944 87 209 0.0 0.0 0.00 0.00 0.00 61 1012.3
20260906014440 87 209 0.0 0.0 0.00 0.00 0.00 61 1012.3
20260906013940 87 209 0.0 0.0 0.00 0.00 0.00 60 1012.2
20260906013438 88 209 0.0 0.0 0.00 0.00 0.00 59 1012.1
20260906012936 88 209 0.0 0.0 0.00 0.00 0.00 59 1012.0
20260906012433 88 209 0.0 0.0 0.00 0.00 0.00 58 1011.9
20260906011930 89 209 0.0 0.0 0.00 0.00 0.00 58 1011.8
20260906011430 89 209 0.0 0.0 0.00 0.00 0.00 57 1011.8
20260906005925 91 209 0.0 0.0 0.00 0.00 0.00 54 1011.7
20260906005426 92 209 0.0 0.0 0.00 0.00 0.00 53 1011.6
20260906004920 92 209 0.0 0.0 0.00 0.00 0.00 52 1011.6
20260906004420 93 209 0.0 0.0 0.00 0.00 0.00 52 1011.7
20260906003921 94 209 0.0 0.0 0.00 0.00 0.00 51 1011.8
20260906003420 95 209 0.0 0.0 0.00 0.00 0.00 50 1011.8
20260906002921 95 209 0.0 0.0 0.00 0.00 0.00 49 1011.8
20260906002421 96 209 0.0 1.0 0.00 0.00 0.00 49 1011.8
20260906001921 96 211 0.0 1.0 0.00 0.00 0.00 48 1011.9
20260906001421 96 245 0.0 0.0 0.00 0.00 0.00 47 1011.9
20260906000922 97 216 0.0 0.0 0.00 0.00 0.00 47 1011.9
20260906000420 96 234 0.0 0.0 0.00 0.00 0.00 46 1012.0
20260905235921 97 225 0.0 0.0 0.00 0.00 0.00 46 1011.9
20260905234421 97 240 0.0 1.0 0.00 0.00 0.00 46 1011.8
20260905233920 97 298 0.0 1.0 0.00 0.00 0.00 45 1011.8
20260905233420 98 190 0.0 2.0 0.00 0.00 0.00 45 1011.7
20260905232920 98 238 0.0 2.0 0.00 0.00 0.00 44 1011.7
20260905232424 98 57 0.0 2.0 0.00 0.00 0.00 44 1011.6
20260905231918 98 226 0.0 5.0 0.00 0.00 0.00 43 1011.6
20260905231413 98 219 0.0 5.0 0.00 0.00 0.00 44 1011.5
20260905230905 98 138 0.0 3.0 0.00 0.00 0.00 42 1011.5
20260905230359 99 232 0.0 3.0 0.00 0.00 0.00 42 1011.5
20260905225853 100 198 0.0 1.0 0.00 0.00 0.00 43 1011.6
20260905225347 100 86 0.0 1.0 0.00 0.00 0.00 44 1011.6
20260905224841 100 86 0.0 1.0 0.00 0.00 0.00 42 1011.6
20260905224336 100 32 0.0 0.0 0.00 0.00 0.00 43 1011.5
20260905223829 100 302 0.0 2.0 0.00 0.00 0.00 44 1011.5
20260905223323 100 38 0.0 2.0 0.00 0.00 0.00 42 1011.5
20260905222817 100 78 0.0 2.0 0.00 0.00 0.00 43 1011.6
20260905222311 101 90 0.0 2.0 0.00 0.00 0.00 41 1011.5
20260905221806 101 79 0.0 1.0 0.00 0.00 0.00 43 1011.5
20260905221258 101 79 0.0 2.0 0.00 0.00 0.00 43 1011.5
20260905220246 100 87 0.0 3.0 0.00 0.00 0.00 44 1011.5
20260905215741 100 44 0.0 1.0 0.00 0.00 0.00 44 1011.5
20260905215236 100 70 0.0 1.0 0.00 0.00 0.00 43 1011.5
20260905214729 101 232 0.0 2.0 0.00 0.00 0.00 43 1011.5
20260905214222 100 76 0.0 2.0 0.00 0.00 0.00 44 1011.6
20260905213718 101 38 0.0 1.0 0.00 0.00 0.00 45 1011.6
20260905213210 100 82 0.0 2.0 0.00 0.00 0.00 44 1011.7
20260905212706 100 84 0.0 3.0 0.00 0.00 0.00 44 1011.7
20260905211146 101 80 0.0 1.0 0.00 0.00 0.00 43 1012.0
20260905210135 101 85 0.0 2.0 0.00 0.00 0.00 41 1012.2
20260905204112 101 88 0.0 1.0 0.00 0.00 0.00 43 1012.5
20260905203605 101 88 0.0 1.0 0.00 0.00 0.00 42 1012.5
20260905202554 100 71 0.0 3.0 0.00 0.00 0.00 44 1012.8
20260905202048 99 62 0.0 2.0 0.00 0.00 0.00 46 1012.9
20260905201541 99 350 0.0 9.0 0.00 0.00 0.00 45 1013.1
20260905201035 98 57 0.0 9.0 0.00 0.00 0.00 47 1013.1
20260905200022 98 29 0.0 3.0 0.00 0.00 0.00 48 1013.3
20260905195516 98 273 0.0 1.0 0.00 0.00 0.00 49 1013.4
20260905195011 97 13 1.0 9.0 0.00 0.00 0.00 50 1013.5
20260905194506 96 49 2.0 15.0 0.00 0.00 0.00 51 1013.7
20260905193958 95 24 1.0 15.0 0.00 0.00 0.00 49 1013.9
20260905193453 95 59 0.0 3.0 0.00 0.00 0.00 52 1013.9
20260905192946 95 82 0.0 3.0 0.00 0.00 0.00 53 1014.0
20260905192442 95 105 0.0 3.0 0.00 0.00 0.00 52 1014.1
20260905191935 95 45 0.0 6.0 0.00 0.00 0.00 51 1014.1
20260905190923 96 44 0.0 6.0 0.00 0.00 0.00 50 1014.2
20260905190418 96 35 1.0 9.0 0.00 0.00 0.00 52 1014.2
20260905185911 96 69 1.0 9.0 0.00 0.00 0.00 52 1014.2